Location: ??????
(38.0677°N, 22.9870°E)
Time: 17:35:23
(UTC+00:00)

Lacrosse 5 rocket - Pass Details

Date: 23 May 2024
Orbit: 445 x 572 km, 57.0° (Epoch: 23 June)

Event Time Altitude Azimuth Distance (km) Brightness Sun altitude
Rises 01:24:49 0° 314° (NW) 2,693 4.9 -17.7°
Reaches altitude 10° 01:27:06 10° 311° (NW) 1,777 3.9 -17.4°
Maximum altitude 01:31:02 59° 232° (SW) 596 1.1 -16.8°
Drops below altitude 10° 01:34:47 10° 152° (SSE) 1,687 3.6 -16.3°
Sets 01:36:54 0° 149° (SSE) 2,542 4.6 -16.0°
